Zurück zum Katalog

MOLNIYA 1-88

AktivKommunikationHEO
NORAD 23420·PAYLOAD·🇷🇺 Russia

Gestartet Dec 14, 1994 von Plesetsk Cosmodrome

Loading…

Nächste Überflüge (nächste 24 Stunden)

TLE

AktuellSource: Space-Track

Epoche: Sep 14, 2026, 07:07 UTC

1 23420U 94081A   26257.29660486  .00000087  00000-0  00000+0 0  9990
2 23420  64.1975 205.9093 5823282 255.8663  36.1758  3.34499635165545

Verfolge MOLNIYA 1-88 in Echtzeit mit AllMySat

Download on the App Store